Regional Weather Roundup
Issued by NWS

Home | Current Version | Previous Version | Text Only | Print | Product List | Glossary On
Versions: 1 2 3 4 5 6 7 8 9 10 11 12 13 14 15 16 17 18 19 20 21 22 23 24 25 26 27 28
000
ASUS45 KCYS 291410
RWRWY

WYOMING REGIONAL WEATHER ROUNDUP
NATIONAL WEATHER SERVICE CHEYENNE WY
800 AM MDT FRI JUL 29 2016

NOTE:  "FAIR" INDICATES FEW OR NO CLOUDS BELOW 12,000 FEET
WITH NO SIGNIFICANT WEATHER AND/OR OBSTRUCTIONS TO VISIBILITY.

WYZ001-291500-
YELLOWSTONE NATIONAL PARK

CITY           SKY/WX    TMP DP  RH WIND       PRES   REMARKS
LK YELLOWSTONE   N/A     50  43  77 CALM      30.35S
W YELLOWSTONE  NOT AVBL

$$
WYZ002>013-054>058-071-098>099-291500-
NORTHERN WYOMING

CITY           SKY/WX    TMP DP  RH WIND       PRES   REMARKS
JACKSON        NOT AVBL
CODY           FAIR      64  48  55 S3        30.18S
GREYBULL       FAIR      65  50  58 CALM      30.11R
WORLAND        FAIR      66  52  60 SW3       30.12S
SHERIDAN       FAIR      61  53  75 S3        30.12F
BUFFALO        FAIR      66  46  48 NW7       30.17S
GILLETTE       FAIR      64  58  80 S14       30.13F
HULETT         FAIR      63  55  77 CALM      30.16S
NEWCASTLE      FAIR      63  54  72 SE8       30.16F

$$
WYZ014>020-022>026-101>103-291500-
CENTRAL WYOMING

CITY           SKY/WX    TMP DP  RH WIND       PRES   REMARKS
BIG PINEY      FAIR      58  36  43 E3        30.32S
PINEDALE       FAIR      52  37  58 CALM      30.34R
DUBOIS         FAIR      54  43  66 NW8       30.31F HAZE
LANDER         FAIR      64  47  53 CALM      30.20F
RIVERTON       FAIR      65  50  58 N6        30.21S
CASPER         FAIR      63  51  65 NW3       30.19S
DOUGLAS          N/A    N/A N/A N/A MISG      30.19R

$$
WYZ021-027>030-104>119-291500-
SOUTHERN WYOMING

CITY           SKY/WX    TMP DP  RH WIND       PRES   REMARKS
EVANSTON       FAIR      63  30  28 SE3       30.30R
KEMMERER         N/A     61  39  44 N6        30.31S
FORT BRIDGER   FAIR      60  36  40 CALM      30.32S
ROCK SPRINGS   FAIR      62  47  57 E3        30.29S
DIXON          FAIR      56  44  63 CALM      30.30R
RAWLINS        FAIR      60  51  72 CALM      30.28S
SARATOGA       FAIR      57  45  62 SE7       30.31S
LARAMIE        PTSUNNY   54  53  97 SW6       30.30S FOG
CHEYENNE       FAIR      63  54  72 SW10      30.24S
TORRINGTON     FAIR      63  59  87 SE7       30.14F
PINE BLUFFS    FAIR      61  59  94 SW3       30.21S

$$




USA.gov is the U.S. government's official web portal to all federal, state and local government web resources and services.